Newark, NJ

4:49 PM EST on February 19, 2017 (GMT -0500)
Newark International

Weather History for KEWR - January, 2012

Change the Weather History Date:

Monday, January 2, 2012

  Actual Average Record
Temperature  
Mean Temperature 41 °F 32 °F  
Max Temperature 50 °F 39 °F 63 °F (1979)
Min Temperature 32 °F 25 °F 7 °F (1968)
Degree Days  
Heating Degree Days 24 33  
Month to date heating degree days 44 65  
Since 1 July heating degree days 1391 1815  
Cooling Degree Days 0 0  
Month to date cooling degree days 0 0  
Year to date cooling degree days 0 0  
Moisture  
Dew Point 19 °F    
Average Humidity 56    
Maximum Humidity 80    
Minimum Humidity 32    
Precipitation  
Precipitation 0.00 in 0.11 in 1.51 in (1987)
Month to date precipitation 0.06 0.23  
Year to date precipitation 0.06 0.23  
Snow  
Snow 0.00 in 0.30 in 3.20 in (2014)
Month to date snowfall 0.0 0.5  
Since 1 July snowfall 5.2 6.3  
Snow Depth 0.00 in    
Sea Level Pressure  
Sea Level Pressure 29.77 in    
Wind  
Wind Speed 16 mph (West)    
Max Wind Speed 31 mph    
Max Gust Speed 40 mph    
Visibility 10 miles    
Events      
T = Trace of Precipitation, MM = Missing Value Source: NWS Daily Summary

Daily Weather History Graph

Daily Weather History Graph

Search for Another Location

Airport or City:

Trip Planner

Search our weather history database for the weather conditions in past years. The results will help you decide how hot, cold, wet, or windy it might be!

Date:

Astronomy

Jan. 02, 2012 Rise Set
Actual Time 7:20 AM EST 4:40 PM EST
Civil Twilight 6:49 AM EST 5:11 PM EST
Nautical Twilight 6:15 AM EST 5:45 PM EST
Astronomical Twilight 5:42 AM EST 6:18 PM EST
Moon 11:56 AM EST (1/2) 1:10 AM EST (1/2)
Length of Visible Light 10h 21m
Length of Day
9h 19m
Waxing Gibbous, 63% of the Moon is Illuminated
Jan 2
Waxing Gibbous
Jan 9
Full
Jan 16
Last Quarter
Jan 23
New
Jan 30
First Quarter

Hourly Weather History & Observations

Time (EST) Temp. Windchill Dew Point Humidity Pressure Visibility Wind Dir Wind Speed Gust Speed Precip Events Conditions
12:51 AM 48.0 °F - 39.0 °F 71% 29.69 in 10.0 mi West 15.0 mph 24.2 mph N/A   Scattered Clouds
1:51 AM 45.0 °F 38.5 °F 28.0 °F 52% 29.72 in 10.0 mi West 13.8 mph 27.6 mph N/A   Partly Cloudy
2:51 AM 43.0 °F 36.4 °F 27.0 °F 53% 29.72 in 10.0 mi West 12.7 mph - N/A   Partly Cloudy
3:51 AM 41.0 °F 33.9 °F 26.1 °F 55% 29.72 in 10.0 mi WSW 12.7 mph - N/A   Scattered Clouds
4:51 AM 39.2 °F 28.5 °F 21.2 °F 49% 29.71 in 10.0 mi West 24.2 mph 31.1 mph N/A   Scattered Clouds
5:51 AM 39.0 °F 29.0 °F 19.9 °F 46% 29.73 in 10.0 mi West 20.7 mph 28.8 mph N/A   Scattered Clouds
6:51 AM 37.0 °F 27.4 °F 15.1 °F 41% 29.75 in 10.0 mi West 17.3 mph 24.2 mph N/A   Scattered Clouds
7:51 AM 37.0 °F 26.4 °F 14.0 °F 39% 29.77 in 10.0 mi WSW 20.7 mph 29.9 mph N/A   Scattered Clouds
8:51 AM 37.0 °F 27.0 °F 16.0 °F 42% 29.79 in 10.0 mi WSW 18.4 mph 28.8 mph N/A   Partly Cloudy
9:51 AM 39.0 °F 29.0 °F 17.1 °F 41% 29.79 in 10.0 mi West 20.7 mph 32.2 mph N/A   Partly Cloudy
10:51 AM 39.9 °F 30.0 °F 16.0 °F 38% 29.77 in 10.0 mi West 21.9 mph 29.9 mph N/A   Partly Cloudy
11:51 AM 42.1 °F 33.6 °F 16.0 °F 35% 29.75 in 10.0 mi West 18.4 mph 25.3 mph N/A   Scattered Clouds
12:51 PM 43.0 °F 34.0 °F 16.0 °F 34% 29.74 in 10.0 mi West 21.9 mph 28.8 mph N/A   Scattered Clouds
1:51 PM 42.1 °F 33.1 °F 15.1 °F 34% 29.73 in 10.0 mi West 20.7 mph 28.8 mph N/A   Mostly Cloudy
2:51 PM 41.0 °F 31.4 °F 14.0 °F 33% 29.73 in 10.0 mi WSW 21.9 mph 27.6 mph N/A   Mostly Cloudy
3:51 PM 39.9 °F 31.1 °F 15.1 °F 36% 29.76 in 10.0 mi West 17.3 mph 25.3 mph N/A   Mostly Cloudy
4:51 PM 37.9 °F 30.9 °F 15.1 °F 39% 29.78 in 10.0 mi West 10.4 mph - N/A   Mostly Cloudy
5:51 PM 37.9 °F 29.6 °F 16.0 °F 41% 29.81 in 10.0 mi WSW 13.8 mph 23.0 mph N/A   Mostly Cloudy
6:51 PM 37.0 °F 28.9 °F 17.1 °F 44% 29.83 in 10.0 mi WSW 12.7 mph - N/A   Mostly Cloudy
7:51 PM 36.0 °F 28.5 °F 17.1 °F 46% 29.83 in 10.0 mi West 10.4 mph - N/A   Mostly Cloudy
8:51 PM 34.0 °F 26.0 °F 18.0 °F 52% 29.83 in 10.0 mi SW 10.4 mph - N/A   Scattered Clouds
9:51 PM 34.0 °F 24.2 °F 19.0 °F 54% 29.83 in 10.0 mi West 15.0 mph - N/A   Scattered Clouds
10:51 PM 33.1 °F 24.4 °F 19.0 °F 56% 29.83 in 10.0 mi West 11.5 mph - N/A   Partly Cloudy
11:51 PM 32.0 °F 24.2 °F 19.0 °F 59% 29.83 in 10.0 mi WSW 9.2 mph - N/A   Scattered Clouds